Location: Central Falls
(41.8900°N, 71.3929°W)
Time: 04:01:58
(UTC+00:00)

Vanguard 2 - Pass Details

Date: 12 December 2023
Orbit: 554 x 2918 km, 32.9° (Epoch: 01 March)

Event Time Altitude Azimuth Distance (km) Brightness Sun altitude
Rises 03:21:33 0° 270° (W) 6,759 12.6 -65.2°
Reaches altitude 10° 03:26:13 10° 267° (W) 5,742 12.1 -65.8°
Enters shadow 03:31:39 24° 260° (W) 4,576 11.4 -66.5°
Maximum altitude 03:42:54 55° 196° (SSW) 2,875 - -67.8°
Drops below altitude 10° 03:54:55 10° 123° (ESE) 4,253 - -69.0°
Sets 03:57:49 0° 119° (ESE) 4,966 - -69.3°
